Weather reports worldwide

Advertisment
Pamplona/Noain, Spain (8085): temperature & dewpoint: 25.09.2020 15:00:00 - 01.10.2020 15:00:00 (CEST)Pamplona/Noain, Spain (8085): wind speed: 25.09.2020 15:00:00 - 01.10.2020 15:00:00 (CEST)Pamplona/Noain, Spain (8085): wind direction: 25.09.2020 15:00:00 - 01.10.2020 15:00:00 (CEST)Pamplona/Noain, Spain (8085): reduced air pressure: 25.09.2020 15:00:00 - 01.10.2020 15:00:00 (CEST)Pamplona/Noain, Spain (8085): visibility: 25.09.2020 15:00:00 - 01.10.2020 15:00:00 (CEST)
Date & Time tt [°C] td [°C] ff [km/h] ff [kn] dd ppp [hPa] vv [km]
01.10.2020 15:00:00 17,4 10,0 8 4 NNW 1009,6 10
01.10.2020 14:00:00 17,5 10,6 11 6 NNW 1010,5 10
01.10.2020 13:00:00 15,8 10,5 9 5 NW 1011,3 30
01.10.2020 12:00:00 15,4 10,7 16 9 N 1011,7 30
01.10.2020 11:00:00 14,0 11,9 4 2 - 1012,2 10
01.10.2020 10:00:00 13,2 10,1 2 1 - 1012,0 10
01.10.2020 09:00:00 10,8 9,4 4 2 S 1011,9 10
01.10.2020 08:00:00 9,8 8,3 2 1 SE 1011,8 20
01.10.2020 07:00:00 9,8 8,2 8 4 SSE 1011,7 10
01.10.2020 06:00:00 10,0 9,1 0 0 N 1011,6 8
01.10.2020 05:00:00 9,3 8,1 2 1 - 1010,9 10
01.10.2020 04:00:00 9,5 8,1 4 2 - 1011,2 9
01.10.2020 03:00:00 10,6 8,9 0 0 N 1011,5 27
01.10.2020 02:00:00 11,0 9,1 4 2 - 1011,9 10
01.10.2020 01:00:00 12,0 9,7 5 3 NNW 1012,1 10
01.10.2020 00:00:00 13,3 9,5 4 2 E 1011,9 10
30.09.2020 23:00:00 14,5 9,3 2 1 - 1012,3 10
30.09.2020 22:00:00 16,1 9,2 4 2 W 1012,4 10
30.09.2020 21:00:00 19,2 7,6 8 4 NNE 1011,5 10
30.09.2020 20:00:00 19,6 8,0 8 4 SW 1010,9 30
30.09.2020 19:00:00 24,7 7,7 11 6 SSW 1010,3 30
30.09.2020 18:00:00 26,2 6,8 4 2 WSW 1010,1 30
30.09.2020 17:00:00 25,7 7,2 4 2 SSE 1010,7 10
30.09.2020 16:00:00 24,4 7,5 5 3 SE 1011,6 10
30.09.2020 15:00:00 23,4 8,7 5 3 SE 1012,7 10
30.09.2020 14:00:00 21,3 9,9 2 1 E 1014,2 10
30.09.2020 13:00:00 19,0 10,0 2 1 NE 1015,6 10
30.09.2020 12:00:00 15,9 8,9 2 1 NNW 1016,8 10
30.09.2020 11:00:00 13,4 8,7 0 0 N 1017,7 10
30.09.2020 10:00:00 10,6 8,1 4 2 E 1018,5 30
30.09.2020 09:00:00 7,9 7,2 0 0 N 1018,9 30
30.09.2020 08:00:00 5,9 5,3 0 0 N 1019,1 10
30.09.2020 07:00:00 6,2 5,5 0 0 N 1018,8 28
30.09.2020 06:00:00 6,6 5,9 0 0 N 1018,9 30
30.09.2020 05:00:00 7,3 6,6 0 0 N 1018,8 30
30.09.2020 04:00:00 8,1 7,0 4 2 NE 1019,2 30
30.09.2020 03:00:00 9,0 7,6 0 0 N 1019,4 10
30.09.2020 02:00:00 9,5 8,0 5 3 NE 1019,4 30
30.09.2020 01:00:00 9,9 8,2 2 1 E 1019,6 30
30.09.2020 00:00:00 11,3 9,0 2 1 - 1019,3 10
29.09.2020 23:00:00 12,4 9,6 5 3 NNE 1019,0 10
29.09.2020 22:00:00 13,8 10,6 0 0 N 1018,3 10
29.09.2020 21:00:00 14,5 10,1 8 4 WSW 1017,7 30
29.09.2020 20:00:00 17,3 9,9 0 0 N 1016,7 10
29.09.2020 19:00:00 21,0 7,6 5 3 NW 1016,0 10
29.09.2020 18:00:00 21,2 8,3 2 1 E 1015,9 10
29.09.2020 17:00:00 21,4 9,1 4 2 N 1016,2 10
29.09.2020 16:00:00 20,5 9,3 2 1 W 1016,8 10
29.09.2020 15:00:00 20,1 9,6 8 4 WNW 1017,8 30
29.09.2020 14:00:00 19,1 9,1 8 4 WNW 1018,7 30
29.09.2020 13:00:00 16,2 8,7 4 2 NNE 1019,6 30
29.09.2020 12:00:00 14,1 7,8 4 2 - 1020,4 10
29.09.2020 11:00:00 12,7 7,6 4 2 NNW 1021,1 30
29.09.2020 10:00:00 10,4 7,6 4 2 - 1021,4 10
29.09.2020 09:00:00 7,7 7,1 0 0 N 1021,5 30
29.09.2020 08:00:00 6,1 5,5 2 1 SSE 1021,3 10
29.09.2020 07:00:00 6,3 5,4 0 0 N 1021,5 30
29.09.2020 06:00:00 6,6 5,9 2 1 - 1021,1 10
29.09.2020 05:00:00 6,9 6,0 0 0 N 1021,0 10
29.09.2020 04:00:00 7,3 6,2 5 3 E 1021,2 30
29.09.2020 03:00:00 7,8 6,4 4 2 SE 1021,6 30
29.09.2020 02:00:00 8,3 6,6 5 3 WNW 1021,8 10
29.09.2020 01:00:00 8,9 6,7 0 0 N 1021,7 10
29.09.2020 00:00:00 9,7 7,3 9 5 NW 1022,0 10
28.09.2020 23:00:00 10,5 7,4 13 7 NW 1021,6 30
28.09.2020 22:00:00 10,8 7,5 9 5 NNW 1021,6 30
28.09.2020 21:00:00 11,7 7,2 16 9 NNW 1020,8 10
28.09.2020 20:00:00 12,4 6,7 18 10 NNW 1020,3 30
28.09.2020 19:00:00 14,0 7,3 21 11 N 1019,4 10
28.09.2020 18:00:00 14,4 6,8 28 15 NNW 1018,9 10
28.09.2020 17:00:00 16,7 7,4 21 11 NNW 1018,5 10
28.09.2020 16:00:00 17,2 7,3 26 14 NNW 1018,5 30
28.09.2020 15:00:00 15,6 8,1 22 12 N 1019,4 30
28.09.2020 14:00:00 16,8 9,2 22 12 NNW 1019,6 10
28.09.2020 13:00:00 15,0 8,0 16 9 NW 1019,9 10
28.09.2020 12:00:00 14,3 7,8 22 12 NNW 1020,3 30
28.09.2020 11:00:00 15,0 8,7 13 7 NNW 1019,8 30
28.09.2020 10:00:00 12,0 7,9 11 6 NW 1020,0 10
28.09.2020 09:00:00 10,1 7,2 8 4 NW 1020,1 10
28.09.2020 08:00:00 10,3 7,2 13 7 NW 1019,5 30
28.09.2020 07:00:00 10,4 7,3 13 7 NW 1019,4 30
28.09.2020 06:00:00 10,0 6,9 15 8 NNW 1019,3 10
28.09.2020 05:00:00 10,7 6,6 16 9 NNW 1019,2 30
28.09.2020 04:00:00 10,6 6,5 11 6 NW 1019,7 30
28.09.2020 03:00:00 10,3 6,3 13 7 NW 1020,0 30
28.09.2020 02:00:00 10,3 6,3 15 8 NNW 1019,9 30
28.09.2020 01:00:00 10,1 6,4 15 8 NNW 1019,9 30
28.09.2020 00:00:00 9,8 6,6 22 12 NNW 1019,8 10
27.09.2020 23:00:00 11,2 6,3 21 11 NNW 1019,6 25
27.09.2020 22:00:00 11,5 5,8 18 10 NNW 1019,3 10
27.09.2020 21:00:00 11,7 5,8 13 7 NNW 1018,7 10
27.09.2020 20:00:00 11,9 6,4 21 11 NNW 1018,5 20
27.09.2020 19:00:00 12,6 5,8 24 13 NNW 1017,8 30
27.09.2020 18:00:00 13,8 6,2 21 11 NW 1017,3 30
27.09.2020 17:00:00 13,6 6,2 28 15 NW 1017,4 28
27.09.2020 16:00:00 13,2 6,6 22 12 NW 1017,5 10
27.09.2020 15:00:00 13,8 4,6 26 14 NNW 1017,4 30
27.09.2020 14:00:00 14,6 4,7 26 14 NNW 1017,5 25
27.09.2020 13:00:00 13,4 5,2 28 15 NNW 1017,6 10
27.09.2020 12:00:00 12,4 5,9 22 12 NNW 1017,9 30
27.09.2020 11:00:00 11,6 6,3 13 7 NNW 1017,6 10
27.09.2020 10:00:00 11,2 5,5 13 7 NNW 1016,8 10
27.09.2020 09:00:00 8,8 4,8 8 4 NW 1016,9 30
27.09.2020 08:00:00 7,1 4,1 11 6 NNW 1016,9 25
27.09.2020 07:00:00 7,1 4,2 9 5 WNW 1016,6 30
27.09.2020 06:00:00 5,8 3,3 9 5 WNW 1016,7 30
27.09.2020 05:00:00 6,8 3,8 11 6 NNW 1016,3 10
27.09.2020 04:00:00 7,1 4,2 22 12 N 1015,9 30
27.09.2020 03:00:00 7,8 4,6 24 13 N 1015,3 30
27.09.2020 02:00:00 8,4 4,8 11 6 NNW 1014,6 10
27.09.2020 01:00:00 9,4 6,4 24 13 N 1013,9 10
27.09.2020 00:00:00 12,2 8,5 35 19 NNW 1011,5 10
26.09.2020 23:00:00 13,5 12,5 11 6 NW 1010,8 10
26.09.2020 22:00:00 13,1 12,4 11 6 NW 1010,3 4,5
26.09.2020 21:00:00 13,2 12,3 15 8 WSW 1010,3 8
26.09.2020 20:00:00 14,0 11,5 9 5 WSW 1011,3 10
26.09.2020 19:00:00 14,8 10,6 15 8 WNW 1011,9 30
26.09.2020 18:00:00 14,6 10,8 13 7 W 1012,8 10
26.09.2020 17:00:00 15,3 10,7 16 9 WNW 1013,6 30
26.09.2020 16:00:00 15,5 10,3 9 5 NW 1014,6 10
26.09.2020 15:00:00 15,5 10,5 15 8 WNW 1015,7 30
26.09.2020 14:00:00 14,9 11,5 15 8 NW 1017,0 30
26.09.2020 13:00:00 14,4 11,3 18 10 NW 1017,8 30
26.09.2020 12:00:00 12,5 11,4 13 7 NW 1019,1 8
26.09.2020 11:00:00 11,5 10,5 13 7 NW 1019,7 8
26.09.2020 10:00:00 10,4 8,9 13 7 NNW 1019,8 10
26.09.2020 09:00:00 9,9 8,1 11 6 WNW 1020,2 10
26.09.2020 08:00:00 9,4 7,2 18 10 NNW 1020,5 30
26.09.2020 07:00:00 9,3 7,9 16 9 NW 1021,0 10
26.09.2020 06:00:00 9,1 8,0 15 8 NW 1021,2 10
26.09.2020 05:00:00 9,2 7,5 15 8 NW 1021,3 10
26.09.2020 04:00:00 9,1 7,8 13 7 NNW 1021,8 30
26.09.2020 03:00:00 9,0 7,8 18 10 NW 1022,3 27
26.09.2020 02:00:00 8,8 8,2 11 6 NW 1022,8 7
26.09.2020 01:00:00 9,1 7,7 18 10 NW 1022,8 10
26.09.2020 00:00:00 9,3 7,8 13 7 NW 1023,2 19
25.09.2020 23:00:00 9,4 7,5 18 10 NNW 1023,1 20
25.09.2020 22:00:00 9,1 7,9 9 5 WNW 1022,9 10
25.09.2020 21:00:00 9,4 7,3 18 10 NW 1022,5 10
25.09.2020 20:00:00 9,9 7,2 24 13 NW 1021,8 12
25.09.2020 19:00:00 10,2 7,7 21 11 WNW 1021,4 10
25.09.2020 18:00:00 10,2 7,9 29 16 NW 1021,0 10
25.09.2020 17:00:00 10,8 9,4 18 10 NW 1020,8 10
25.09.2020 16:00:00 9,3 8,3 22 12 NNW 1021,0 6
25.09.2020 15:00:00 10,9 8,2 29 16 NNW 1020,2 10

tt = temperature
td = dewpoint
ff = wind speed
dd = wind direction
ppp = reduced air pressure
vv = visibility

Next stations